Weather in Aysha

Russia / Republic of Tatarstan     55°52′14″N   48°37′48″E
temp.,
°C
wind,
m/s
gust,
m/s
humid.,
%
clouds,
%
prec.,
mm/h
press.,
hPa
HPBL,
m
8 august, mon
mon800:00+20sw1151100 0.0 102011
03:00+18nw005482 0.0 102011
06:00+21se1157100 0.0 102126
09:00+24sw0153100 0.0 1021196
12:00+28s114272 0.0 10201220
15:00+29e004188 0.0 10201892
18:00+24ese116097 0.0 102028
21:00+22sw2264100 0.0 102016
9 august, tue
tue900:00+20ssw1169100 0.0 102011
03:00+19wnw017446 0.2 102011
06:00+21nw117181 0.4 102046
09:00+25wnw0057100 0.4 1020381
12:00+28w1146100 0.0 10191354
15:00+29wsw2241100 0.0 10182130
18:00+25ene3558100 0.1 1017101
21:00+21nw006621 0.1 101812
10 august, wed
wed1000:00+18nw338350 0.1 101849
03:00+17se118322 0.1 101711
06:00+19nw2382100 0.0 1018118
09:00+23nw226687 0.0 1018443
12:00+26wnw225446 0.0 1017980
15:00+28w224988 0.0 10161368
18:00+18nnw5995100 5.8 1016308
21:00+17n3696100 15.2 1018316
11 august, thu
thu1100:00+16nnw3698100 0.7 1018273
03:00+15nnw3893100 0.7 1020316
06:00+14nnw4988100 0.0 1021384
09:00+17nnw586541 0.0 1022743
12:00+21nnw57491 0.0 10221532
15:00+22nnw56440 0.0 10221821
18:00+20n35600 0.0 1022171
21:00+15ssw11660 0.0 102311
12 august, fri
fri1200:00+14sw226942 0.0 102415
03:00+13wsw237448 0.0 102337
06:00+15wsw267999 0.0 1024164
09:00+20w5760100 0.0 1024655
12:00+23w575098 0.0 10231388
15:00+23w674896 0.0 10221423
18:00+21w486439 0.0 1021271
21:00+17w35725 0.0 102280